Grant County, OR

11:33 AM PDT on August 18, 2017 (GMT -0700)
Grant County Regional

Weather History for KGCD - July, 2013

Change the Weather History Date:

Tuesday, July 9, 2013

  Actual Average (KBNO) Record (KBNO)
Temperature  
Mean Temperature 76 °F -  
Max Temperature 96 °F 84 °F 98 °F (2012)
Min Temperature 56 °F 44 °F 37 °F (1999)
Cooling Degree Days 11    
Growing Degree Days 26 (Base 50)    
Moisture  
Dew Point 36 °F    
Average Humidity 26    
Maximum Humidity 47    
Minimum Humidity 9    
Precipitation  
Precipitation 0.00 in - - ()
Sea Level Pressure  
Sea Level Pressure 30.11 in    
Wind  
Wind Speed 7 mph (NE)    
Max Wind Speed 12 mph    
Max Gust Speed 21 mph    
Visibility 10 miles    
Events      
Averages and records for this station are not official NWS values.
T = Trace of Precipitation, MM = Missing Value Source: NWS Daily Summary

Daily Weather History Graph

Daily Weather History Graph

Search for Another Location

Airport or City:

Trip Planner

Search our weather history database for the weather conditions in past years. The results will help you decide how hot, cold, wet, or windy it might be!

Date:

Astronomy

Jul. 09, 2013 Rise Set
Actual Time 5:20 AM PDT 8:41 PM PDT
Civil Twilight 4:44 AM PDT 9:16 PM PDT
Nautical Twilight 3:58 AM PDT 10:03 PM PDT
Astronomical Twilight 2:59 AM PDT 11:01 PM PDT
Moon 6:55 AM PDT (7/9) 9:14 PM PDT (7/9)
Length of Visible Light 16h 31m
Length of Day
15h 20m
New Moon, 2% of the Moon is Illuminated
Jul 9
New Moon
Jul 15
First Quarter
Jul 22
Full
Jul 29
Last Quarter
Aug 6
New

Hourly Weather History & Observations

Time (PDT) Temp. Dew Point Humidity Pressure Visibility Wind Dir Wind Speed Gust Speed Precip Events Conditions
12:15 AM 64.6 °F 32.9 °F 31% 30.14 in 10.0 mi ENE 6.9 mph - N/A   Clear
12:35 AM 63.5 °F 33.4 °F 33% 30.14 in 10.0 mi East 5.8 mph - N/A   Clear
12:55 AM 62.6 °F 33.1 °F 33% 30.14 in 10.0 mi East 8.1 mph - N/A   Clear
1:15 AM 62.4 °F 33.8 °F 34% 30.14 in 10.0 mi East 10.4 mph - N/A   Clear
1:35 AM 62.2 °F 34.2 °F 35% 30.14 in 10.0 mi East 8.1 mph - N/A   Clear
1:55 AM 62.6 °F 35.1 °F 36% 30.14 in 10.0 mi East 9.2 mph - N/A   Clear
2:15 AM 60.8 °F 35.1 °F 38% 30.15 in 10.0 mi East 6.9 mph - N/A   Clear
2:35 AM 60.8 °F 35.1 °F 38% 30.15 in 10.0 mi East 8.1 mph - N/A   Clear
2:55 AM 59.2 °F 35.1 °F 40% 30.15 in 10.0 mi East 6.9 mph - N/A   Clear
3:15 AM 58.6 °F 35.2 °F 42% 30.15 in 10.0 mi ESE 10.4 mph - N/A   Clear
3:35 AM 59.4 °F 35.6 °F 41% 30.15 in 10.0 mi ESE 9.2 mph - N/A   Clear
3:55 AM 59.0 °F 35.2 °F 41% 30.16 in 10.0 mi ESE 10.4 mph - N/A   Clear
4:15 AM 57.4 °F 35.6 °F 44% 30.15 in 10.0 mi ESE 6.9 mph - N/A   Clear
4:35 AM 56.8 °F 35.8 °F 45% 30.16 in 10.0 mi ESE 9.2 mph - N/A   Clear
4:55 AM 58.8 °F 35.8 °F 42% 30.16 in 10.0 mi SE 9.2 mph - N/A   Clear
5:15 AM 57.9 °F 36.1 °F 44% 30.16 in 10.0 mi ESE 8.1 mph - N/A   Clear
5:35 AM 56.3 °F 36.5 °F 47% 30.17 in 10.0 mi SE 11.5 mph - N/A   Clear
5:55 AM 58.1 °F 36.5 °F 44% 30.17 in 10.0 mi SE 11.5 mph - N/A   Clear
6:15 AM 58.5 °F 36.9 °F 45% 30.17 in 10.0 mi ESE 8.1 mph - N/A   Clear
6:35 AM 59.4 °F 37.2 °F 44% 30.18 in 10.0 mi SE 9.2 mph - N/A   Clear
6:55 AM 60.8 °F 37.4 °F 42% 30.18 in 10.0 mi ESE 9.2 mph - N/A   Clear
7:15 AM 61.5 °F 37.8 °F 41% 30.19 in 10.0 mi SE 9.2 mph - N/A   Clear
7:35 AM 62.8 °F 37.8 °F 40% 30.18 in 10.0 mi ESE 6.9 mph - N/A   Clear
7:55 AM 65.1 °F 38.3 °F 37% 30.19 in 10.0 mi SE 8.1 mph - N/A   Clear
8:15 AM 66.9 °F 38.3 °F 35% 30.19 in 10.0 mi East 5.8 mph - N/A   Clear
8:35 AM 68.7 °F 39.4 °F 34% 30.19 in 10.0 mi East 5.8 mph - N/A   Clear
8:55 AM 70.9 °F 38.7 °F 31% 30.19 in 10.0 mi East 5.8 mph - N/A   Clear
9:15 AM 73.4 °F 38.1 °F 28% 30.18 in 10.0 mi ENE 5.8 mph - N/A   Clear
9:35 AM 75.7 °F 37.9 °F 26% 30.18 in 10.0 mi ENE 6.9 mph - N/A   Clear
9:55 AM 77.9 °F 38.3 °F 24% 30.18 in 10.0 mi ENE 5.8 mph - N/A   Clear
10:15 AM 80.2 °F 37.0 °F 21% 30.17 in 10.0 mi ENE 4.6 mph - N/A   Clear
10:35 AM 81.0 °F 34.3 °F 19% 30.16 in 10.0 mi NE 5.8 mph - N/A   Clear
10:55 AM 82.6 °F 34.0 °F 17% 30.16 in 10.0 mi Calm Calm - N/A   Clear
11:15 AM 84.2 °F 34.9 °F 17% 30.15 in 10.0 mi East 4.6 mph - N/A   Clear
11:35 AM 85.6 °F 35.4 °F 17% 30.15 in 10.0 mi NE 4.6 mph - N/A   Clear
11:55 AM 87.4 °F 36.3 °F 16% 30.14 in 10.0 mi WNW 5.8 mph - N/A   Clear
12:15 PM 88.2 °F 36.0 °F 16% 30.14 in 10.0 mi NNW 3.5 mph - N/A   Clear
12:35 PM 89.1 °F 35.1 °F 15% 30.13 in 10.0 mi NNE 10.4 mph - N/A   Clear
12:55 PM 90.3 °F 34.9 °F 14% 30.13 in 10.0 mi NE 8.1 mph - N/A   Clear
1:15 PM 90.0 °F 34.7 °F 14% 30.12 in 10.0 mi WNW 4.6 mph - N/A   Clear
1:35 PM 91.2 °F 34.7 °F 14% 30.11 in 10.0 mi East 4.6 mph - N/A   Clear
1:55 PM 91.8 °F 34.5 °F 13% 30.10 in 10.0 mi NNE 5.8 mph - N/A   Clear
2:15 PM 92.7 °F 34.7 °F 13% 30.09 in 10.0 mi NW 3.5 mph - N/A   Clear
2:35 PM 93.4 °F 34.3 °F 12% 30.09 in 10.0 mi NW 6.9 mph - N/A   Clear
2:55 PM 93.6 °F 33.6 °F 12% 30.08 in 10.0 mi WNW 6.9 mph - N/A   Clear
3:15 PM 94.3 °F 33.8 °F 12% 30.08 in 10.0 mi NNE 6.9 mph - N/A   Clear
3:35 PM 94.6 °F 32.9 °F 11% 30.07 in 10.0 mi NNW 4.6 mph - N/A   Clear
3:55 PM 96.1 °F 32.2 °F 11% 30.06 in 10.0 mi NW 8.1 mph 17.3 mph N/A   Clear
4:15 PM 95.5 °F 30.7 °F 10% 30.05 in 10.0 mi NW 10.4 mph - N/A   Clear
4:35 PM 94.8 °F 30.4 °F 10% 30.05 in 10.0 mi NW 8.1 mph - N/A   Clear
4:55 PM 95.2 °F 29.8 °F 10% 30.05 in 10.0 mi SSW 6.9 mph 20.7 mph N/A   Clear
5:15 PM 95.9 °F 27.0 °F 9% 30.04 in 10.0 mi NW 10.4 mph - N/A   Clear
5:35 PM 95.0 °F 27.5 °F 9% 30.03 in 10.0 mi NW 10.4 mph - N/A   Clear
5:55 PM 94.6 °F 29.1 °F 10% 30.03 in 10.0 mi NW 9.2 mph - N/A   Clear
6:15 PM 94.5 °F 28.4 °F 10% 30.03 in 10.0 mi WNW 10.4 mph - N/A   Clear
6:35 PM 93.6 °F 29.3 °F 10% 30.02 in 10.0 mi NW 6.9 mph - N/A   Clear
6:55 PM 93.4 °F 30.2 °F 11% 30.02 in 10.0 mi West 8.1 mph - N/A   Clear
7:15 PM 92.3 °F 30.4 °F 11% 30.01 in 10.0 mi WNW 9.2 mph - N/A   Clear
7:35 PM 89.6 °F 36.0 °F 15% 30.01 in 10.0 mi North 9.2 mph - N/A   Clear
7:55 PM 88.3 °F 36.3 °F 16% 30.03 in 10.0 mi NNE 9.2 mph - N/A   Clear
8:15 PM 86.0 °F 37.4 °F 18% 30.03 in 10.0 mi NW 5.8 mph - N/A   Clear
8:35 PM 83.5 °F 39.6 °F 21% 30.04 in 10.0 mi NNW 4.6 mph - N/A   Clear
8:55 PM 82.8 °F 40.1 °F 22% 30.04 in 10.0 mi Calm Calm - N/A   Clear
9:15 PM 80.8 °F 40.5 °F 24% 30.05 in 10.0 mi WNW 5.8 mph - N/A   Clear
9:35 PM 79.7 °F 40.5 °F 25% 30.05 in 10.0 mi NNW 9.2 mph - N/A   Clear
9:55 PM 78.3 °F 40.6 °F 26% 30.06 in 10.0 mi NW 5.8 mph - N/A   Clear
10:15 PM 76.5 °F 40.6 °F 28% 30.06 in 10.0 mi NW 5.8 mph - N/A   Clear
10:35 PM 76.1 °F 41.0 °F 28% 30.06 in 10.0 mi NW 3.5 mph - N/A   Clear
10:55 PM 76.8 °F 40.5 °F 27% 30.07 in 10.0 mi WNW 3.5 mph - N/A   Clear
11:15 PM 74.1 °F 40.3 °F 29% 30.07 in 10.0 mi WNW 6.9 mph - N/A   Clear
11:35 PM 72.7 °F 40.3 °F 31% 30.08 in 10.0 mi West 5.8 mph - N/A   Clear
11:55 PM 71.8 °F 40.3 °F 32% 30.08 in 10.0 mi WSW 5.8 mph - N/A   Clear